Location: Silverdale
(47.6506°N, 122.6941°W)
Time: 01:53:11
(UTC+00:00)

A-11 Canister half - Pass Details

Date: 05 October 2022
Orbit: 1524 x 1685 km, 47.3° (Epoch: 05 December)

Event Time Altitude Azimuth Distance (km) Brightness Sun altitude
Rises 04:58:56 0° 290° (WNW) 4,710 12.6 -32.3°
Reaches altitude 10° 05:02:06 10° 285° (WNW) 3,741 11.8 -32.8°
Maximum altitude 05:10:55 46° 216° (SW) 2,041 9.5 -34.0°
Enters shadow 05:12:01 44° 199° (SSW) 2,083 9.4 -34.1°
